#timestamp,LO_Frequency,Hit,StdDev 
1508680815.8,286047002.4,Y
1508680835.6,286047001.7,P
1508680855.5,286047003.5,N
1508680875.3,286047003.0,N
1508680895.1,286047004.0,N
1508680915.9,286047000.5,N
1508680935.7,286047002.7,N
1508680955.5,286047000.1,N
1508680975.4,286047000.3,N
1508680995.2,286047001.5,N
1508681015.0,286047005.6,Y
1508681015.9,286047005.6,P
1508681035.8,286047001.9,N
1508681055.6,286047003.5,N
1508681075.4,286047006.0,Y
1508681095.3,286046998.1,P
1508681115.1,286046999.4,N
1508681135.8,286046995.0,N
1508681155.7,286046997.8,N
1508681175.5,286046993.5,N
1508681195.4,286046991.7,N
1508681215.2,286046996.3,N
1508681235.0,286046991.8,N
1508681235.9,286046991.8,N
1508681255.8,286046989.0,Y
1508681275.6,286046995.7,P
1508681295.4,286046996.9,P
1508681315.3,286046997.4,P
1508681335.1,286046994.0,Y
1508681355.8,286047002.3,P
1508681375.7,286046999.2,N
1508681395.5,286047000.1,N
1508681415.3,286047001.4,N
1508681435.2,286047004.1,N
1508681455.0,286047004.3,N
1508681455.9,286047004.3,N
1508681475.8,286047001.2,N
1508681495.6,286047000.6,N
1508681515.4,286047000.6,N
1508681535.3,286047001.0,N
1508681555.1,286047000.0,N
1508681556.0,286047000.0,N
1508681575.8,286046998.1,N
1508681595.7,286046995.2,N
1508681615.5,286046995.9,N
1508681635.3,286047000.4,N
1508681655.2,286047001.5,N
1508681675.9,286047000.9,N
1508681695.7,286046998.9,N
1508681715.6,286047000.4,N
1508681735.4,286046998.6,N
1508681755.2,286046998.7,N
1508681775.1,286046996.7,N
1508681776.0,286046996.7,N
1508681795.8,286046996.5,N
1508681815.6,286046997.0,N
1508681835.5,286046997.7,N
1508681855.3,286047002.0,N
1508681875.1,286047000.2,N
1508681895.9,286047004.4,N
1508681915.7,286047002.0,N
1508681935.5,286046998.9,N
1508681955.4,286046998.1,N
1508681975.2,286047001.2,N
1508681995.0,286046997.8,N
1508681996.0,286046997.8,N
1508682015.8,286047000.6,N
1508682035.6,286046995.4,N
1508682055.5,286046996.5,N
1508682075.3,286047001.2,N
1508682095.1,286047000.0,N
1508682115.9,286047004.1,N
1508682135.7,286046997.0,N
1508682155.5,286047000.0,N
1508682175.4,286046998.6,N
1508682195.2,286046997.3,N
1508682215.0,286046995.2,N
1508682215.9,286046995.2,N
1508682235.8,286047000.8,N
1508682255.6,286046998.5,N
1508682275.4,286047000.9,N
1508682295.3,286047002.6,N
1508682315.1,286047003.2,N
1508682316.0,286047003.2,N
1508682335.8,286047000.7,N
1508682355.7,286047000.0,N
1508682375.5,286046998.6,N
1508682395.3,286046995.9,N
1508682415.2,286046996.4,N
1508682435.9,286046996.4,N
1508682455.7,286046991.9,Y
1508682475.6,286046998.4,P
1508682495.4,286046999.3,N
1508682515.2,286047001.2,N
1508682535.1,286046997.1,N
1508682536.0,286046997.1,N
1508682555.8,286046997.2,N
1508682575.7,286046999.2,N
1508682595.5,286046995.8,Y
1508682615.3,286046996.9,P
1508682635.2,286047001.1,N
1508682655.9,286047001.1,N
1508682675.7,286047002.8,N
1508682695.6,286047000.6,N
1508682715.4,286046999.6,N
1508682735.2,286046997.6,N
1508682755.1,286046998.3,N
1508682756.0,286046998.3,N
1508682775.8,286047000.0,N
1508682795.6,286046999.7,N
1508682815.5,286047005.4,Y
1508682835.3,286047003.7,P
1508682855.1,286047002.8,N
1508682875.9,286047002.5,N
1508682895.7,286047002.5,N
1508682915.6,286047005.6,Y
1508682935.4,286047000.1,P
1508682955.2,286047001.8,N
1508682975.1,286047004.7,P
1508682976.0,286047004.7,N
1508682995.8,286047008.8,Y
1508683015.6,286047004.0,P
1508683035.5,286047004.1,P
1508683055.3,286046998.6,N
1508683075.1,286046998.3,N
1508683095.9,286047003.9,N
1508683115.7,286047006.0,N
1508683135.5,286047007.3,N
1508683155.4,286047005.7,N
1508683175.2,286047005.0,N
1508683195.0,286047004.8,N
1508683195.9,286047004.8,N
1508683215.8,286046998.1,N
1508683235.6,286047000.3,N
1508683255.4,286047002.6,N
1508683275.3,286047002.6,N
1508683295.1,286046998.1,N
1508683315.8,286047001.1,N
1508683335.7,286047000.2,N
1508683355.5,286047003.7,N
1508683375.3,286046998.6,N
1508683395.2,286046998.4,N
1508683415.9,286046998.3,N
1508683435.7,286047002.5,N
1508683455.6,286047001.2,N
1508683475.4,286046999.0,N
1508683495.2,286046999.2,N
1508683515.1,286046997.7,N
1508683516.0,286046997.7,N
1508683535.8,286047000.9,N
1508683555.6,286046999.9,N
1508683575.5,286047000.2,N
1508683595.3,286047004.9,N
1508683615.1,286047004.8,N
1508683635.9,286047006.6,N
1508683655.7,286047006.7,N
1508683675.5,286047004.5,N
1508683695.4,286047005.4,N
1508683715.2,286047006.5,N
1508683735.1,286047008.4,N
1508683736.0,286047008.4,N
1508683755.8,286047006.3,N
1508683775.6,286047007.8,N
1508683795.5,286047008.3,N
1508683815.3,286047005.5,N
1508683835.1,286047004.5,N
1508683855.9,286047005.4,N
1508683875.7,286047005.8,N
1508683895.5,286047007.1,N
1508683915.4,286047003.5,N
1508683935.2,286047003.7,N
1508683955.0,286047003.4,N
1508683955.9,286047003.4,N
1508683975.8,286047004.9,N
1508683995.6,286047004.5,N
1508684015.4,286047003.7,N
1508684035.3,286047003.6,N
1508684055.1,286047004.3,N
1508684075.8,286047002.0,N
1508684095.7,286047002.3,N
1508684115.5,286047003.1,N
1508684135.3,286047005.4,N
1508684155.2,286047003.5,N
1508684175.9,286047001.9,N
1508684195.7,286047002.3,N
1508684215.6,286047003.4,N
1508684235.4,286047004.5,N
1508684255.2,286047003.4,N
1508684275.1,286047000.6,N
1508684276.0,286047000.6,N
1508684295.8,286046998.2,N
1508684315.6,286047003.0,N
1508684335.5,286047006.7,Y
1508684355.3,286046999.8,P
1508684375.2,286046998.2,N
1508684395.9,286047000.4,N
